Location: ????
(33.1659°N, 35.6604°E)
Time: 22:43:07
(UTC+00:00)

NOSS 3-4 (A) - Pass Details

Date: 20 September 2019
Orbit: 910 x 1303 km, 63.4° (Epoch: 17 October)

Event Time Altitude Azimuth Distance (km) Brightness Sun altitude
Rises 16:36:08 0° 336° (NNW) 3,890 7.1 -13.0°
Reaches altitude 10° 16:38:52 10° 343° (NNW) 2,989 6.4 -13.6°
Maximum altitude 16:45:42 45° 54° (NE) 1,584 4.3 -15.0°
Enters shadow 16:50:36 21° 116° (ESE) 2,467 5.0 -16.0°
